Regional Weather Roundup
Issued by NWS

Home | Current Version | Previous Version | Text Only | Print | Product List | Glossary On
Versions: 1 2 3 4 5 6 7 8 9 10 11 12 13 14 15 16 17 18 19 20 21 22 23 24 25 26 27 28 29 30 31 32 33 34 35 36 37 38 39 40 41 42 43 44 45 46 47 48 49 50
000
ASUS44 KJAN 300203
RWRMS

MISSISSIPPI HOURLY WEATHER ROUNDUP
NATIONAL WEATHER SERVICE JACKSON MS
900 PM CDT SAT AUG 29 2015

NOTE: "FAIR: INDICATES FEW OR NO CLOUDS BELOW 12,000 FEET WITH NO
SIGNIFICANT WEATHER AND/OR OBSTRUCTIONS TO VISIBILITY.

MSZ001>002-007>008-010>013-018>021-025>028-034>036-300300-
NORTHWEST MISSISSIPPI

CITY           SKY/WX    TMP DP  RH WIND       PRES   REMARKS
CLARKSDALE     MOCLDY    77  70  78 CALM      30.02R
CLEVELAND      FAIR      82  64  54 NE6       29.99R
GREENWOOD      PTCLDY    79  65  62 E7        29.99R
GREENVILLE     MOCLDY    77  66  68 SE7       29.98R
OLIVE BRANCH   CLEAR     81  72  74 CALM      30.03R
OXFORD         FAIR      77  70  78 SE3       30.05R
TUNICA         CLOUDY    79  70  73 E3        30.02R
$$

MSZ003>006-009-014>017-022>024-029>033-037>039-300300-
NORTHEAST MISSISSIPPI

CITY           SKY/WX    TMP DP  RH WIND       PRES   REMARKS
COLUMBUS AFB   MOCLDY    74  67  79 SE6       30.04R
CORINTH        FAIR      75  68  78 SE7       30.05R
GOLDN TRIANGLE CLOUDY    75  64  69 E9        30.04S
STARKVILLE     FAIR      73  68  83 E9        30.05R
TUPELO         MOCLDY    77  70  79 SE13      30.06R
$$

MSZ040-058-300300-
CENTRAL MISSISSIPPI

CITY           SKY/WX    TMP DP  RH WIND       PRES   REMARKS
JACKSON INTL   PTCLDY    77  61  57 CALM      30.00R
JACKSON HAWKNS CLEAR     78  61  55 CALM      30.01R
MERIDIAN KEY   MOCLDY    79  70  74 SE8       30.03R
MERIDIAN NAS   CLOUDY    79  70  74 SE7       30.04R
VICKSBURG      CLEAR     71  67  87 CALM      29.98R
$$

MSZ059>079-300300-
SOUTH MISSISSIPPI

CITY           SKY/WX    TMP DP  RH WIND       PRES   REMARKS
BROOKHAVEN     FAIR      75  64  69 CALM      30.03R
HATTIESBURG    PTCLDY    80  70  71 CALM      30.02R
MCCOMB         PTCLDY    77  66  68 CALM      30.01R
NATCHEZ        MOCLDY    77  66  69 S3        30.00S
PINE BELT      PTCLDY    73  43  33 CALM      30.03S
$$

MSZ080>082-300300-
COASTAL MISSISSIPPI

CITY           SKY/WX    TMP DP  RH WIND       PRES   REMARKS
BILOXI         MOCLDY    81  68  63 S3        30.02R
PASCAGOULA     MOCLDY    74  72  93 CALM      30.03R
GULFPORT       PTCLDY    78  70  76 CALM      30.01R
$$


USA.gov is the U.S. government's official web portal to all federal, state and local government web resources and services.